Printer-friendly version

IAU Minor Planet Center

Minor Planet Center

MPEC 2004-T36 : 2004 TK10

The following Minor Planet Electronic Circular may be linked-to from your own Web pages, but must not otherwise be redistributed electronically.


Read MPEC 2004-T35 Read MPEC 2004-T37


M.P.E.C. 2004-T36                                Issued 2004 Oct.  9, 15:17 UT

     The Minor Planet Electronic Circulars contain information on unusual
         minor planets and routine data on comets.  They are published
   on behalf of Commission 20 of the International Astronomical Union by the
          Minor Planet Center, Smithsonian Astrophysical Observatory,
                          Cambridge, MA 02138, U.S.A.

                  Supported in part by the Brinson Foundation
             Prepared using the Tamkin Foundation Computer Network

                              MPC@CFA.HARVARD.EDU
          URL http://cfa-www.harvard.edu/iau/mpc.html  ISSN 1523-6714

                                   2004 TK10

Observations:
     K04T10K* C2004 10 08.32742 02 24 36.04 +19 30 15.4          21.1 V ET036691
     K04T10K  C2004 10 08.35478 02 24 32.79 +19 28 49.1          21.0 V ET036691
     K04T10K  C2004 10 08.38216 02 24 29.46 +19 27 22.2          20.6 V ET036691
     K04T10K HC2004 10 09.19814 02 22 57.79 +18 43 34.6          21.8 V ET036291
     K04T10K HC2004 10 09.20233 02 22 57.25 +18 43 21.5          21.7 V ET036291
     K04T10K HC2004 10 09.20634 02 22 56.86 +18 43 08.9          21.2 V ET036291
     K04T10K  C2004 10 09.29874 02 22 45.50 +18 38 09.5          20.8 R ET036G90
     K04T10K  C2004 10 09.30653 02 22 44.56 +18 37 44.1          20.5 R ET036G90
     K04T10K  C2004 10 09.31432 02 22 43.55 +18 37 19.4          20.0 R ET036G90
     K04T10K HC2004 10 09.41726 02 22 30.84 +18 31 40.8          21.2 V ET036291
     K04T10K HC2004 10 09.42161 02 22 30.27 +18 31 26.9          21.3 V ET036291
     K04T10K HC2004 10 09.42565 02 22 29.77 +18 31 13.8          21.2 V ET036291

Observer details:
291 LPL/Spacewatch II.  Observer M. Block.  1.8-m f/2.7 reflector + CCD.
691 Steward Observatory, Kitt Peak.  Observer M. Block.  0.9-m f/3 reflector
    + CCD.
G90 Three Buttes Observatory, Tucson.  Observer G. R. Jones.  0.40-m
    Ritchey-Chretien + CCD.

Orbital elements:
2004 TK10
Epoch 2004 Oct. 2.0 TT = JDT 2453280.5                  MPC
M 197.04377              (2000.0)            P               Q
n   0.90442619     Peri.  344.19541     -0.97402201     +0.12507815
a   1.0589789      Node   205.42683     -0.12870897     -0.99165736
e   0.3183733      Incl.   26.08293     -0.18631997     +0.03116320
P   1.09           H   21.4           G   0.15
From 12 observations 2004 Oct. 8-9.

Ephemeris:
2004 TK10                a,e,i = 1.06, 0.32, 26                  q = 0.7218
Date    TT    R. A. (2000) Decl.     Delta      r     Elong.  Phase     V
2004 10 02    02 34.97   +24 29.7    0.447    1.388   144.0    25.1    21.5
2004 10 12    02 17.30   +16 05.1    0.393    1.376   161.4    13.4    20.8
2004 10 22    01 54.24   +05 15.4    0.366    1.360   173.9     4.4    20.3
2004 11 01    01 30.35   -05 58.9    0.371    1.339   155.4    18.0    20.8
2004 11 11    01 10.34   -15 14.9    0.403    1.313   136.7    31.2    21.4
2004 11 21    00 57.10   -21 39.0    0.452    1.282   121.3    41.2    21.8

Kyle E. Smalley              (C) Copyright 2004 MPC           M.P.E.C. 2004-T36

Read MPEC 2004-T35 Read MPEC 2004-T37


Our Web policy. Index to the CBAT/MPC/ICQ pages.


Valid HTML 4.01!